THA472 YSSY-VTBS

Flight info

Callsign THA472
Flight time N/A
Altitude 36000
Route KADOM A576 MACLA/N0492F380 A576 ATMAP/N0487F400 M635 BLI G464 PNK N875 ENREP M904 TONIK M644 ALUMO Y12 ALEMI TUMGA1D
Aircraft A359/H-SDE2E3GHIJ3J4J5LM1ORWXY/LB1D1

Departure

Time 2026-05-05 11:26
Airport Sydney Kingsford Smith International Airport (YSSY)

Arrival

Time N/A
Airport Suvarnabhumi Airport (VTBS)
Time Latitude Longitude Altitude Speed Heading
2026-05-05 11:06 -33.93858 151.16980 27 ft 0 kts 253°
2026-05-05 11:15 -33.93857 151.16984 18 ft 3 kts 271°
2026-05-05 11:15 -33.93859 151.17011 13 ft 3 kts 283°
2026-05-05 11:15 -33.93866 151.17036 3 ft 3 kts 297°
2026-05-05 11:16 -33.93878 151.17059 30 ft 3 kts 311°
2026-05-05 11:16 -33.93894 151.17077 29 ft 3 kts 329°
2026-05-05 11:16 -33.93911 151.17086 27 ft 0 kts 347°
2026-05-05 11:20 -33.93906 151.17085 26 ft 5 kts 350°
2026-05-05 11:20 -33.93843 151.17069 27 ft 10 kts 347°
2026-05-05 11:20 -33.93770 151.17055 26 ft 11 kts 357°
2026-05-05 11:21 -33.93708 151.17095 26 ft 10 kts 64°
2026-05-05 11:21 -33.93660 151.17137 26 ft 9 kts
2026-05-05 11:21 -33.93597 151.17126 26 ft 10 kts 348°
2026-05-05 11:21 -33.93528 151.17110 26 ft 11 kts 348°
2026-05-05 11:22 -33.93454 151.17090 26 ft 11 kts 347°
2026-05-05 11:22 -33.93375 151.17068 27 ft 12 kts 341°
2026-05-05 11:22 -33.93305 151.17017 27 ft 12 kts 323°
2026-05-05 11:22 -33.93237 151.16959 27 ft 12 kts 341°
2026-05-05 11:23 -33.93154 151.16935 27 ft 13 kts 346°
2026-05-05 11:23 -33.93066 151.16912 27 ft 13 kts 349°
2026-05-05 11:23 -33.92989 151.16946 27 ft 12 kts 59°
2026-05-05 11:23 -33.92974 151.16999 26 ft 0 kts 77°
2026-05-05 11:24 -33.92970 151.17024 27 ft 8 kts 77°
2026-05-05 11:24 -33.92963 151.17136 30 ft 19 kts 100°
2026-05-05 11:24 -33.93007 151.17182 30 ft 12 kts 171°
2026-05-05 11:25 -33.93289 151.17250 27 ft 72 kts 168°
2026-05-05 11:25 -33.93960 151.17424 27 ft 123 kts 167°
2026-05-05 11:25 -33.94944 151.17681 28 ft 166 kts 168°
2026-05-05 11:25 -33.96116 151.17996 472 ft 169 kts 175°
2026-05-05 11:26 -33.97243 151.18208 1125 ft 159 kts 185°
2026-05-05 11:26 -33.98384 151.18031 1450 ft 173 kts 187°
2026-05-05 11:26 -33.99642 151.17847 1659 ft 192 kts 185°
2026-05-05 11:26 -34.01021 151.17688 2006 ft 203 kts 184°
2026-05-05 11:27 -34.02476 151.17587 2314 ft 219 kts 177°
2026-05-05 11:27 -34.04045 151.17912 2532 ft 239 kts 165°
2026-05-05 11:27 -34.05660 151.18450 3010 ft 247 kts 164°
2026-05-05 11:27 -34.07322 151.19022 3623 ft 249 kts 164°
2026-05-05 11:28 -34.09000 151.19593 4200 ft 253 kts 165°
2026-05-05 11:28 -34.10707 151.20170 4779 ft 257 kts 165°
2026-05-05 11:28 -34.12431 151.20755 5377 ft 259 kts 165°
2026-05-05 11:28 -34.14175 151.21337 5988 ft 261 kts 166°
2026-05-05 11:29 -34.15940 151.21925 6553 ft 267 kts 165°
2026-05-05 11:29 -34.17766 151.22438 7088 ft 271 kts 174°
2026-05-05 11:29 -34.19639 151.22522 7747 ft 271 kts 185°
2026-05-05 11:29 -34.21486 151.22030 8308 ft 275 kts 204°
2026-05-05 11:30 -34.23015 151.20716 8941 ft 276 kts 229°
2026-05-05 11:30 -34.23902 151.18673 9535 ft 281 kts 257°
2026-05-05 11:30 -34.23878 151.16309 10065 ft 287 kts 285°
2026-05-05 11:30 -34.22890 151.14174 10383 ft 302 kts 314°
2026-05-05 11:31 -34.21116 151.12727 10774 ft 313 kts 331°
2026-05-05 11:31 -34.19163 151.11524 11339 ft 317 kts 331°
2026-05-05 11:31 -34.17198 151.10276 11944 ft 320 kts 330°
2026-05-05 11:31 -34.15237 151.08984 12564 ft 322 kts 329°
2026-05-05 11:32 -34.13294 151.07676 13174 ft 325 kts 329°
2026-05-05 11:32 -34.11320 151.06335 13794 ft 328 kts 328°
2026-05-05 11:32 -34.09327 151.04974 14343 ft 330 kts 328°
2026-05-05 11:32 -34.07323 151.03600 14882 ft 332 kts 328°
2026-05-05 11:33 -34.05306 151.02215 15427 ft 334 kts 328°
2026-05-05 11:33 -34.03282 151.00825 15973 ft 336 kts 328°
2026-05-05 11:33 -34.01249 150.99425 16514 ft 337 kts 328°
2026-05-05 11:33 -33.99337 150.97798 17033 ft 337 kts 315°
2026-05-05 11:34 -33.97853 150.95620 17418 ft 341 kts 299°
2026-05-05 11:34 -33.96741 150.93052 17641 ft 351 kts 295°
2026-05-05 11:34 -33.95686 150.90389 17874 ft 362 kts 294°
2026-05-05 11:34 -33.94581 150.87609 18107 ft 373 kts 295°
2026-05-05 11:35 -33.93437 150.84757 18348 ft 383 kts 295°
2026-05-05 11:35 -33.92260 150.81837 18568 ft 393 kts 295°
2026-05-05 11:35 -33.91049 150.78841 18770 ft 403 kts 295°
2026-05-05 11:35 -33.89808 150.75782 19062 ft 409 kts 295°
2026-05-05 11:36 -33.88553 150.72692 19447 ft 413 kts 295°
2026-05-05 11:36 -33.87286 150.69576 19869 ft 416 kts 295°
2026-05-05 11:36 -33.86011 150.66444 20307 ft 418 kts 295°
2026-05-05 11:36 -33.84748 150.63343 20784 ft 420 kts 295°
2026-05-05 11:37 -33.83459 150.60181 21251 ft 422 kts 295°
2026-05-05 11:37 -33.82161 150.57002 21710 ft 425 kts 295°
2026-05-05 11:37 -33.80857 150.53809 22177 ft 427 kts 295°
2026-05-05 11:37 -33.79542 150.50593 22690 ft 429 kts 295°
2026-05-05 11:38 -33.78221 150.47365 23149 ft 432 kts 295°
2026-05-05 11:38 -33.76890 150.44116 23577 ft 435 kts 296°
2026-05-05 11:38 -33.75547 150.40840 23982 ft 438 kts 296°
2026-05-05 11:38 -33.74198 150.37554 24412 ft 440 kts 296°
2026-05-05 11:39 -33.72861 150.34301 24847 ft 440 kts 296°
2026-05-05 11:39 -33.71522 150.30987 25283 ft 441 kts 294°
2026-05-05 11:39 -33.70388 150.27555 25705 ft 443 kts 290°
2026-05-05 11:39 -33.69378 150.24057 26117 ft 444 kts 288°
2026-05-05 11:40 -33.68425 150.20532 26522 ft 445 kts 288°
2026-05-05 11:40 -33.67486 150.16981 26935 ft 447 kts 288°
2026-05-05 11:40 -33.66543 150.13410 27230 ft 451 kts 288°
2026-05-05 11:40 -33.65585 150.09816 27595 ft 453 kts 288°
2026-05-05 11:41 -33.64615 150.06216 27989 ft 454 kts 288°
2026-05-05 11:41 -33.63649 150.02659 28369 ft 455 kts 288°
2026-05-05 11:41 -33.62661 149.99042 28718 ft 457 kts 288°
2026-05-05 11:41 -33.61666 149.95412 29063 ft 459 kts 288°
2026-05-05 11:42 -33.60666 149.91773 29383 ft 460 kts 288°
2026-05-05 11:42 -33.59663 149.88125 29672 ft 462 kts 288°
2026-05-05 11:42 -33.58653 149.84458 29988 ft 463 kts 288°
2026-05-05 11:42 -33.57643 149.80797 30465 ft 461 kts 288°
2026-05-05 11:43 -33.56640 149.77161 30922 ft 457 kts 289°
2026-05-05 11:43 -33.55658 149.73604 31376 ft 453 kts 289°
2026-05-05 11:43 -33.54669 149.70029 31802 ft 450 kts 289°
2026-05-05 11:43 -33.53687 149.66483 32228 ft 447 kts 289°
2026-05-05 11:44 -33.52712 149.62966 32614 ft 444 kts 289°
2026-05-05 11:44 -33.51740 149.59464 32983 ft 442 kts 289°
2026-05-05 11:44 -33.50768 149.55968 33191 ft 443 kts 289°
2026-05-05 11:44 -33.49793 149.52466 33465 ft 442 kts 289°
2026-05-05 11:45 -33.48823 149.48982 33828 ft 439 kts 289°
2026-05-05 11:45 -33.47871 149.45570 34212 ft 436 kts 289°
2026-05-05 11:45 -33.46911 149.42135 34493 ft 434 kts 289°
2026-05-05 11:45 -33.45955 149.38715 34682 ft 434 kts 289°
2026-05-05 11:46 -33.44993 149.35281 34843 ft 434 kts 289°
2026-05-05 11:46 -33.44035 149.31862 35009 ft 434 kts 289°
2026-05-05 11:46 -33.43072 149.28430 35212 ft 434 kts 289°
2026-05-05 11:46 -33.42112 149.25017 35367 ft 433 kts 289°
2026-05-05 11:47 -33.41151 149.21599 35539 ft 433 kts 289°
2026-05-05 11:47 -33.40190 149.18186 35695 ft 433 kts 289°
2026-05-05 11:47 -33.39240 149.14817 35852 ft 433 kts 289°
2026-05-05 11:47 -33.38277 149.11406 35993 ft 432 kts 289°
2026-05-05 11:48 -33.36351 149.04597 36250 ft 430 kts 289°
2026-05-05 11:48 -33.34465 148.97944 36290 ft 417 kts 289°
2026-05-05 11:49 -33.32603 148.91391 36266 ft 417 kts 289°
2026-05-05 11:49 -33.30745 148.84870 36266 ft 418 kts 289°
2026-05-05 11:50 -33.28867 148.78292 36277 ft 418 kts 289°
2026-05-05 11:50 -33.26989 148.71729 36262 ft 418 kts 289°
2026-05-05 11:51 -33.25100 148.65142 36263 ft 419 kts 289°
2026-05-05 11:51 -33.23218 148.58592 36260 ft 419 kts 289°
2026-05-05 11:52 -33.21320 148.52002 36260 ft 420 kts 289°
2026-05-05 11:52 -33.19419 148.45419 36275 ft 420 kts 289°
2026-05-05 11:53 -33.17509 148.38821 36255 ft 421 kts 289°
2026-05-05 11:53 -33.15594 148.32216 36258 ft 421 kts 289°
2026-05-05 11:54 -33.13688 148.25658 36258 ft 421 kts 289°
2026-05-05 11:54 -33.10988 148.19483 36254 ft 421 kts 301°
2026-05-05 11:55 -33.07776 148.13623 36252 ft 423 kts 303°
2026-05-05 11:55 -33.04517 148.07781 36252 ft 423 kts 302°
2026-05-05 11:56 -33.01322 148.01966 36253 ft 421 kts 302°
2026-05-05 11:56 -32.98133 147.96110 36252 ft 421 kts 302°
2026-05-05 11:57 -32.94945 147.90254 36253 ft 422 kts 302°
2026-05-05 11:57 -32.91748 147.84393 36252 ft 422 kts 302°
2026-05-05 11:58 -32.88568 147.78575 36251 ft 422 kts 302°
2026-05-05 11:58 -32.85359 147.72714 36251 ft 422 kts 302°
2026-05-05 11:59 -32.82150 147.66863 36252 ft 423 kts 302°
2026-05-05 11:59 -32.78955 147.61047 36253 ft 424 kts 302°
2026-05-05 12:00 -32.75724 147.55175 36256 ft 425 kts 302°
2026-05-05 12:00 -32.72493 147.49311 36255 ft 424 kts 302°
2026-05-05 12:01 -32.69258 147.43449 36252 ft 424 kts 302°
2026-05-05 12:01 -32.66022 147.37594 36255 ft 425 kts 302°
2026-05-05 12:02 -32.62796 147.31767 36239 ft 426 kts 302°
2026-05-05 12:02 -32.59535 147.25886 36255 ft 426 kts 302°
2026-05-05 12:03 -32.56278 147.20021 36248 ft 426 kts 302°
2026-05-05 12:03 -32.53044 147.14207 36251 ft 425 kts 303°
2026-05-05 12:04 -32.49792 147.08368 36253 ft 425 kts 302°
2026-05-05 12:04 -32.46531 147.02523 36252 ft 426 kts 303°
2026-05-05 12:05 -32.43264 146.96678 36252 ft 426 kts 303°
2026-05-05 12:05 -32.39993 146.90834 36253 ft 426 kts 303°
2026-05-05 12:06 -32.36740 146.85030 36251 ft 426 kts 303°
2026-05-05 12:06 -32.33462 146.79191 36252 ft 427 kts 303°
2026-05-05 12:07 -32.30177 146.73348 36251 ft 427 kts 303°
2026-05-05 12:07 -32.26887 146.67508 36253 ft 427 kts 303°
2026-05-05 12:08 -32.23617 146.61710 36252 ft 427 kts 303°
2026-05-05 12:08 -32.20322 146.55876 36255 ft 427 kts 303°
2026-05-05 12:09 -32.17023 146.50045 36254 ft 427 kts 303°
2026-05-05 12:09 -32.13722 146.44218 36254 ft 427 kts 303°
2026-05-05 12:10 -32.10441 146.38437 36253 ft 427 kts 303°
2026-05-05 12:10 -32.07134 146.32618 36255 ft 426 kts 303°
2026-05-05 12:11 -32.03832 146.26816 36257 ft 427 kts 303°
2026-05-05 12:11 -32.00544 146.21048 36256 ft 427 kts 303°
2026-05-05 12:12 -31.97230 146.15245 36254 ft 427 kts 303°
2026-05-05 12:12 -31.93915 146.09447 36251 ft 427 kts 303°
2026-05-05 12:13 -31.90597 146.03653 36259 ft 427 kts 303°
2026-05-05 12:13 -31.87271 145.97853 36253 ft 427 kts 303°
2026-05-05 12:14 -31.83964 145.92096 36251 ft 428 kts 303°
2026-05-05 12:14 -31.80632 145.86304 36254 ft 428 kts 303°
2026-05-05 12:15 -31.77298 145.80517 36254 ft 428 kts 303°
2026-05-05 12:15 -31.73962 145.74736 36255 ft 428 kts 303°
2026-05-05 12:16 -31.70644 145.68993 36254 ft 428 kts 303°
2026-05-05 12:16 -31.67299 145.63213 36255 ft 428 kts 303°
2026-05-05 12:17 -31.63949 145.57433 36250 ft 428 kts 303°
2026-05-05 12:17 -31.60599 145.51663 36244 ft 428 kts 303°
2026-05-05 12:18 -31.57274 145.45944 36254 ft 427 kts 303°
2026-05-05 12:18 -31.53928 145.40196 36258 ft 427 kts 303°
2026-05-05 12:19 -31.50579 145.34452 36251 ft 427 kts 303°
2026-05-05 12:19 -31.47227 145.28711 36253 ft 427 kts 303°
2026-05-05 12:20 -31.43869 145.22969 36253 ft 427 kts 303°
2026-05-05 12:20 -31.40535 145.17277 36256 ft 427 kts 303°
2026-05-05 12:21 -31.37171 145.11540 36254 ft 427 kts 303°
2026-05-05 12:21 -31.33806 145.05812 36251 ft 427 kts 303°
2026-05-05 12:22 -31.30460 145.00124 36253 ft 427 kts 303°
2026-05-05 12:22 -31.27089 144.94402 36252 ft 427 kts 303°
2026-05-05 12:23 -31.23714 144.88681 36251 ft 427 kts 303°
2026-05-05 12:23 -31.20338 144.82967 36250 ft 427 kts 303°
2026-05-05 12:24 -31.16955 144.77250 36250 ft 427 kts 303°
2026-05-05 12:24 -31.13599 144.71586 36251 ft 428 kts 303°
2026-05-05 12:25 -31.10212 144.65879 36252 ft 427 kts 303°
2026-05-05 12:25 -31.06834 144.60194 36252 ft 426 kts 303°
2026-05-05 12:26 -31.03455 144.54516 36250 ft 426 kts 303°
2026-05-05 12:26 -31.00095 144.48879 36252 ft 426 kts 303°
2026-05-05 12:27 -30.96706 144.43201 36247 ft 427 kts 303°
2026-05-05 12:27 -30.93316 144.37529 36250 ft 427 kts 303°
2026-05-05 12:28 -30.89923 144.31860 36252 ft 427 kts 303°
2026-05-05 12:28 -30.86550 144.26233 36252 ft 427 kts 303°
2026-05-05 12:29 -30.83151 144.20573 36249 ft 427 kts 303°
2026-05-05 12:29 -30.79750 144.14915 36249 ft 427 kts 303°
2026-05-05 12:30 -30.76344 144.09257 36255 ft 427 kts 303°
2026-05-05 12:30 -30.72961 144.03645 36255 ft 427 kts 303°
2026-05-05 12:31 -30.69553 143.98001 36251 ft 427 kts 303°
2026-05-05 12:31 -30.66138 143.92352 36251 ft 427 kts 303°
2026-05-05 12:32 -30.62724 143.86713 36241 ft 427 kts 303°
2026-05-05 12:32 -30.59339 143.81129 36252 ft 425 kts 303°
2026-05-05 12:33 -30.55935 143.75524 36253 ft 425 kts 303°
2026-05-05 12:33 -30.52525 143.69915 36251 ft 425 kts 303°
2026-05-05 12:34 -30.49112 143.64309 36254 ft 426 kts 303°
2026-05-05 12:34 -30.45717 143.58742 36254 ft 426 kts 303°
2026-05-05 12:35 -30.42299 143.53143 36257 ft 426 kts 303°
2026-05-05 12:35 -30.38876 143.47544 36256 ft 426 kts 303°
2026-05-05 12:36 -30.35451 143.41952 36257 ft 426 kts 303°
2026-05-05 12:36 -30.32048 143.36401 36258 ft 426 kts 303°
2026-05-05 12:37 -30.28620 143.30817 36258 ft 426 kts 303°
2026-05-05 12:37 -30.25186 143.25232 36251 ft 426 kts 303°
2026-05-05 12:38 -30.21753 143.19657 36255 ft 425 kts 303°
2026-05-05 12:38 -30.18319 143.14088 36254 ft 425 kts 303°
2026-05-05 12:39 -30.14905 143.08562 36254 ft 425 kts 303°
2026-05-05 12:39 -30.11462 143.02998 36252 ft 425 kts 303°
2026-05-05 12:40 -30.08021 142.97444 36252 ft 425 kts 303°
2026-05-05 12:40 -30.04598 142.91927 36251 ft 426 kts 303°
2026-05-05 12:41 -30.01150 142.86377 36251 ft 426 kts 303°
2026-05-05 12:41 -29.97697 142.80827 36251 ft 425 kts 303°
2026-05-05 12:42 -29.94244 142.75285 36246 ft 425 kts 303°
2026-05-05 12:42 -29.90789 142.69749 36249 ft 425 kts 303°
2026-05-05 12:43 -29.87350 142.64255 36247 ft 425 kts 303°
2026-05-05 12:43 -29.83892 142.58728 36246 ft 425 kts 303°
2026-05-05 12:44 -29.80433 142.53205 36249 ft 425 kts 303°
2026-05-05 12:44 -29.76966 142.47680 36249 ft 425 kts 303°
2026-05-05 12:45 -29.73522 142.42199 36249 ft 425 kts 303°
2026-05-05 12:45 -29.70052 142.36687 36249 ft 426 kts 303°
2026-05-05 12:46 -29.66580 142.31179 36245 ft 425 kts 303°
2026-05-05 12:46 -29.63121 142.25700 36252 ft 422 kts 303°
2026-05-05 12:47 -29.59671 142.20240 36249 ft 422 kts 303°
2026-05-05 12:47 -29.56242 142.14819 36250 ft 422 kts 303°
2026-05-05 12:48 -29.52786 142.09363 36251 ft 422 kts 303°
2026-05-05 12:48 -29.49329 142.03914 36243 ft 422 kts 303°
2026-05-05 12:49 -29.45874 141.98476 36249 ft 421 kts 303°
2026-05-05 12:49 -29.42440 141.93078 36249 ft 421 kts 303°
2026-05-05 12:50 -29.38984 141.87652 36252 ft 421 kts 303°
2026-05-05 12:50 -29.35529 141.82233 36252 ft 421 kts 303°
2026-05-05 12:51 -29.32070 141.76818 36249 ft 421 kts 303°
2026-05-05 12:51 -29.28611 141.71408 36249 ft 421 kts 303°
2026-05-05 12:52 -29.25168 141.66032 36249 ft 421 kts 303°
2026-05-05 12:52 -29.21705 141.60630 36249 ft 421 kts 303°
2026-05-05 12:53 -29.18241 141.55235 36248 ft 420 kts 303°
2026-05-05 12:53 -29.14787 141.49861 36252 ft 419 kts 303°
2026-05-05 12:54 -29.09629 141.41848 36248 ft 419 kts 303°
2026-05-05 12:55 -29.06173 141.36488 36250 ft 419 kts 303°
2026-05-05 12:55 -29.02715 141.31133 36249 ft 419 kts 303°
2026-05-05 12:56 -28.99278 141.25816 36250 ft 419 kts 303°
2026-05-05 12:56 -28.95818 141.20471 36250 ft 419 kts 303°
2026-05-05 12:57 -28.92353 141.15125 36246 ft 419 kts 303°
2026-05-05 12:57 -28.88887 141.09786 36243 ft 419 kts 303°
2026-05-05 12:58 -28.85420 141.04450 36240 ft 419 kts 303°
2026-05-05 12:58 -28.81975 140.99155 36261 ft 418 kts 303°
2026-05-05 12:59 -28.78502 140.93825 36241 ft 418 kts 303°
2026-05-05 12:59 -28.75032 140.88504 36243 ft 418 kts 303°
2026-05-05 13:00 -28.69844 140.80565 36246 ft 417 kts 303°
2026-05-05 13:01 -28.62921 140.69994 36246 ft 416 kts 303°
2026-05-05 13:01 -28.59458 140.64713 36240 ft 416 kts 303°
2026-05-05 13:02 -28.55992 140.59437 36246 ft 416 kts 303°
2026-05-05 13:02 -28.52548 140.54199 36243 ft 416 kts 303°
2026-05-05 13:03 -28.49077 140.48928 36245 ft 416 kts 303°
2026-05-05 13:03 -28.46191 140.44551 36246 ft 416 kts 303°
2026-05-05 13:04 -28.42718 140.39288 36244 ft 416 kts 303°
2026-05-05 13:04 -28.38681 140.33179 36246 ft 416 kts 303°
2026-05-05 13:05 -28.35797 140.28820 36243 ft 416 kts 303°
2026-05-05 13:05 -28.32323 140.23575 36242 ft 416 kts 303°
2026-05-05 13:06 -28.28846 140.18333 36239 ft 416 kts 303°
2026-05-05 13:06 -28.25365 140.13090 36242 ft 416 kts 303°
2026-05-05 13:07 -28.21909 140.07892 36237 ft 415 kts 303°
2026-05-05 13:07 -28.18431 140.02667 36241 ft 415 kts 303°
2026-05-05 13:08 -28.14953 139.97449 36241 ft 415 kts 303°
2026-05-05 13:08 -28.11472 139.92232 36239 ft 415 kts 303°
2026-05-05 13:09 -28.07988 139.87017 36242 ft 415 kts 303°
2026-05-05 13:09 -28.04522 139.81834 36242 ft 415 kts 303°
2026-05-05 13:10 -28.01033 139.76625 36243 ft 415 kts 303°
2026-05-05 13:10 -27.97543 139.71420 36248 ft 415 kts 303°
2026-05-05 13:11 -27.94045 139.66210 36239 ft 415 kts 303°
2026-05-05 13:11 -27.90573 139.61044 36244 ft 416 kts 303°
2026-05-05 13:12 -27.87074 139.55845 36242 ft 416 kts 303°
2026-05-05 13:12 -27.83575 139.50651 36242 ft 416 kts 303°
2026-05-05 13:13 -27.80070 139.45456 36242 ft 416 kts 303°
2026-05-05 13:13 -27.76560 139.40259 36244 ft 416 kts 303°
2026-05-05 13:14 -27.73076 139.35106 36243 ft 416 kts 303°
2026-05-05 13:14 -27.69568 139.29924 36245 ft 416 kts 303°
2026-05-05 13:15 -27.66058 139.24745 36247 ft 416 kts 304°
2026-05-05 13:15 -27.62542 139.19565 36247 ft 416 kts 304°
2026-05-05 13:16 -27.59028 139.14392 36241 ft 416 kts 304°
2026-05-05 13:16 -27.55535 139.09257 36244 ft 416 kts 304°
2026-05-05 13:17 -27.52017 139.04091 36246 ft 416 kts 304°
2026-05-05 13:17 -27.48498 138.98930 36244 ft 415 kts 304°
2026-05-05 13:18 -27.44976 138.93771 36244 ft 415 kts 304°
2026-05-05 13:18 -27.41476 138.88649 36244 ft 415 kts 304°
2026-05-05 13:19 -27.37950 138.83495 36241 ft 416 kts 304°
2026-05-05 13:19 -27.34417 138.78338 36240 ft 416 kts 304°
2026-05-05 13:20 -27.30885 138.73189 36242 ft 416 kts 304°
2026-05-05 13:20 -27.27376 138.68078 36236 ft 416 kts 304°
2026-05-05 13:21 -27.23845 138.62942 36240 ft 415 kts 304°
2026-05-05 13:21 -27.20311 138.57807 36241 ft 415 kts 304°
2026-05-05 13:22 -27.16779 138.52681 36244 ft 415 kts 304°
2026-05-05 13:22 -27.13265 138.47587 36246 ft 415 kts 304°
2026-05-05 13:23 -27.09730 138.42469 36244 ft 415 kts 304°
2026-05-05 13:23 -27.06189 138.37348 36243 ft 415 kts 304°
2026-05-05 13:24 -27.02650 138.32235 36246 ft 415 kts 304°
2026-05-05 13:24 -26.99132 138.27159 36246 ft 415 kts 304°
2026-05-05 13:25 -26.95586 138.22048 36243 ft 415 kts 304°
2026-05-05 13:25 -26.92039 138.16941 36249 ft 415 kts 304°
2026-05-05 13:26 -26.88489 138.11839 36249 ft 415 kts 304°
2026-05-05 13:26 -26.84941 138.06744 36248 ft 415 kts 304°
2026-05-05 13:27 -26.81410 138.01679 36221 ft 415 kts 304°
2026-05-05 13:27 -26.77857 137.96588 36246 ft 414 kts 304°
2026-05-05 13:28 -26.74309 137.91511 36249 ft 414 kts 304°
2026-05-05 13:28 -26.70759 137.86437 36250 ft 414 kts 304°
2026-05-05 13:29 -26.67228 137.81394 36250 ft 414 kts 304°
2026-05-05 13:29 -26.63676 137.76327 36245 ft 414 kts 304°
2026-05-05 13:30 -26.60116 137.71257 36250 ft 414 kts 304°
2026-05-05 13:30 -26.56559 137.66194 36250 ft 414 kts 304°
2026-05-05 13:31 -26.53021 137.61166 36248 ft 414 kts 304°
2026-05-05 13:31 -26.49461 137.56110 36249 ft 415 kts 304°
2026-05-05 13:32 -26.45892 137.51049 36253 ft 415 kts 304°
2026-05-05 13:32 -26.42325 137.45996 36247 ft 415 kts 304°
2026-05-05 13:33 -26.38780 137.40979 36249 ft 415 kts 304°
2026-05-05 13:33 -26.35205 137.35925 36249 ft 415 kts 304°
2026-05-05 13:34 -26.31632 137.30881 36249 ft 415 kts 304°
2026-05-05 13:34 -26.28079 137.25870 36251 ft 414 kts 304°
2026-05-05 13:35 -26.24505 137.20835 36250 ft 414 kts 304°
2026-05-05 13:35 -26.20931 137.15806 36252 ft 414 kts 304°
2026-05-05 13:36 -26.17352 137.10776 36250 ft 414 kts 304°
2026-05-05 13:36 -26.13775 137.05751 36250 ft 414 kts 304°
2026-05-05 13:37 -26.10218 137.00762 36247 ft 414 kts 304°
2026-05-05 13:37 -26.06633 136.95739 36245 ft 414 kts 304°
2026-05-05 13:38 -26.03045 136.90717 36247 ft 414 kts 304°
2026-05-05 13:38 -25.99458 136.85704 36253 ft 414 kts 304°
2026-05-05 13:39 -25.95895 136.80727 36250 ft 414 kts 304°
2026-05-05 13:39 -25.92303 136.75716 36257 ft 414 kts 304°
2026-05-05 13:40 -25.88707 136.70711 36257 ft 415 kts 305°
2026-05-05 13:40 -25.85109 136.65708 36249 ft 414 kts 304°
2026-05-05 13:41 -25.81527 136.60726 36252 ft 413 kts 304°
2026-05-05 13:41 -25.77965 136.55778 36253 ft 413 kts 304°
2026-05-05 13:42 -25.74382 136.50808 36254 ft 412 kts 304°
2026-05-05 13:42 -25.70797 136.45840 36255 ft 412 kts 304°
2026-05-05 13:43 -25.67212 136.40880 36257 ft 412 kts 304°
2026-05-05 13:43 -25.63647 136.35951 36253 ft 412 kts 304°
2026-05-05 13:44 -25.60069 136.31011 36258 ft 411 kts 304°
2026-05-05 13:44 -25.56490 136.26074 36258 ft 411 kts 304°
2026-05-05 13:45 -25.52910 136.21140 36260 ft 411 kts 304°
2026-05-05 13:45 -25.49333 136.16215 36259 ft 411 kts 304°
2026-05-05 13:46 -25.45774 136.11322 36257 ft 410 kts 304°
2026-05-05 13:46 -25.42201 136.06414 36257 ft 410 kts 304°
2026-05-05 13:47 -25.38621 136.01501 36257 ft 410 kts 304°
2026-05-05 13:47 -25.35043 135.96596 36250 ft 410 kts 304°
2026-05-05 13:48 -25.31489 135.91730 36257 ft 408 kts 304°
2026-05-05 13:48 -25.27923 135.86851 36257 ft 408 kts 304°
2026-05-05 13:49 -25.24353 135.81972 36260 ft 408 kts 304°
2026-05-05 13:49 -25.20784 135.77100 36255 ft 408 kts 304°
2026-05-05 13:50 -25.17236 135.72262 36260 ft 408 kts 304°
2026-05-05 13:50 -25.13663 135.67394 36259 ft 408 kts 304°
2026-05-05 13:51 -25.10091 135.62532 36259 ft 408 kts 304°
2026-05-05 13:51 -25.06512 135.57666 36260 ft 408 kts 304°
2026-05-05 13:52 -25.02957 135.52838 36262 ft 408 kts 304°
2026-05-05 13:52 -24.99378 135.47982 36262 ft 408 kts 304°
2026-05-05 13:53 -24.95792 135.43122 36239 ft 408 kts 304°
2026-05-05 13:53 -24.92210 135.38273 36256 ft 407 kts 304°
2026-05-05 13:54 -24.88668 135.33481 36265 ft 406 kts 304°
2026-05-05 13:54 -24.85104 135.28664 36266 ft 405 kts 304°
2026-05-05 13:55 -24.81538 135.23850 36263 ft 405 kts 304°
2026-05-05 13:55 -24.77976 135.19046 36262 ft 405 kts 304°
2026-05-05 13:56 -24.74411 135.14244 36262 ft 405 kts 304°
2026-05-05 13:56 -24.70864 135.09471 36262 ft 405 kts 304°
2026-05-05 13:57 -24.67296 135.04674 36262 ft 405 kts 304°
2026-05-05 13:57 -24.63724 134.99877 36264 ft 405 kts 304°
2026-05-05 13:58 -24.60176 134.95115 36265 ft 406 kts 304°
2026-05-05 13:58 -24.56606 134.90330 36263 ft 403 kts 304°
2026-05-05 13:59 -24.51285 134.83210 36265 ft 401 kts 304°
2026-05-05 14:00 -24.45976 134.76107 36267 ft 401 kts 304°
2026-05-05 14:00 -24.42455 134.71406 36269 ft 400 kts 304°
2026-05-05 14:01 -24.38928 134.66705 36261 ft 399 kts 304°
2026-05-05 14:01 -24.35402 134.62005 36268 ft 399 kts 304°
2026-05-05 14:02 -24.31877 134.57311 36264 ft 399 kts 304°
2026-05-05 14:02 -24.28367 134.52644 36249 ft 399 kts 304°
2026-05-05 14:03 -24.24845 134.47965 36268 ft 398 kts 304°
2026-05-05 14:03 -24.21324 134.43290 36266 ft 398 kts 304°
2026-05-05 14:04 -24.17801 134.38617 36268 ft 398 kts 304°
2026-05-05 14:04 -24.14274 134.33941 36266 ft 398 kts 304°
2026-05-05 14:05 -24.10772 134.29308 36266 ft 397 kts 303°
2026-05-05 14:05 -24.07257 134.24660 36265 ft 396 kts 303°
2026-05-05 14:06 -24.03741 134.20015 36267 ft 397 kts 304°
2026-05-05 14:06 -24.00216 134.15360 36263 ft 397 kts 304°
2026-05-05 14:07 -23.96706 134.10733 36262 ft 398 kts 303°
2026-05-05 14:07 -23.93175 134.06080 36265 ft 398 kts 303°
2026-05-05 14:08 -23.89633 134.01418 36268 ft 399 kts 304°
2026-05-05 14:08 -23.86085 133.96752 36266 ft 400 kts 304°
2026-05-05 14:09 -23.82522 133.92070 36247 ft 401 kts 304°
2026-05-05 14:09 -23.79098 133.87345 36266 ft 397 kts 298°
2026-05-05 14:10 -23.76133 133.82269 36271 ft 396 kts 297°
2026-05-05 14:10 -23.73245 133.77144 36264 ft 397 kts 297°
2026-05-05 14:11 -23.70353 133.71993 36265 ft 398 kts 297°
2026-05-05 14:11 -23.67469 133.66877 36262 ft 399 kts 297°
2026-05-05 14:12 -23.64557 133.61728 36262 ft 399 kts 297°
2026-05-05 14:12 -23.61632 133.56564 36259 ft 400 kts 297°
2026-05-05 14:13 -23.58704 133.51395 36261 ft 401 kts 297°
2026-05-05 14:13 -23.55763 133.46210 36261 ft 402 kts 297°
2026-05-05 14:14 -23.52834 133.41057 36255 ft 403 kts 297°
2026-05-05 14:14 -23.49881 133.35866 36256 ft 403 kts 297°
2026-05-05 14:15 -23.46919 133.30663 36255 ft 404 kts 297°
2026-05-05 14:15 -23.43953 133.25455 36257 ft 405 kts 297°
2026-05-05 14:16 -23.40975 133.20235 36252 ft 406 kts 297°
2026-05-05 14:16 -23.38013 133.15046 36253 ft 407 kts 297°
2026-05-05 14:17 -23.35021 133.09812 36250 ft 408 kts 297°
2026-05-05 14:17 -23.32020 133.04566 36249 ft 409 kts 297°
2026-05-05 14:18 -23.29010 132.99309 36247 ft 410 kts 297°
2026-05-05 14:18 -23.26011 132.94078 36246 ft 411 kts 297°
2026-05-05 14:19 -23.22983 132.88803 36241 ft 412 kts 297°
2026-05-05 14:19 -23.19944 132.83514 36239 ft 412 kts 297°
2026-05-05 14:20 -23.16907 132.78233 36237 ft 412 kts 298°
2026-05-05 14:20 -23.13866 132.72951 36238 ft 412 kts 298°
2026-05-05 14:21 -23.10846 132.67711 36239 ft 412 kts 298°
2026-05-05 14:21 -23.07801 132.62432 36234 ft 412 kts 298°
2026-05-05 14:22 -23.04755 132.57157 36232 ft 413 kts 298°
2026-05-05 14:22 -23.01724 132.51913 36234 ft 413 kts 298°
2026-05-05 14:23 -22.98675 132.46643 36229 ft 412 kts 298°
2026-05-05 14:23 -22.95621 132.41371 36228 ft 412 kts 298°
2026-05-05 14:24 -22.92564 132.36099 36221 ft 413 kts 298°
2026-05-05 14:24 -22.89506 132.30829 36238 ft 413 kts 298°
2026-05-05 14:25 -22.86460 132.25588 36217 ft 413 kts 298°
2026-05-05 14:25 -22.83396 132.20320 36217 ft 413 kts 298°
2026-05-05 14:26 -22.80328 132.15049 36221 ft 413 kts 298°
2026-05-05 14:26 -22.77262 132.09789 36223 ft 413 kts 298°
2026-05-05 14:27 -22.74209 132.04554 36215 ft 414 kts 298°
2026-05-05 14:27 -22.71136 131.99292 36218 ft 414 kts 298°
2026-05-05 14:28 -22.68058 131.94026 36212 ft 414 kts 298°
2026-05-05 14:28 -22.64979 131.88764 36210 ft 414 kts 298°
2026-05-05 14:29 -22.61921 131.83543 36206 ft 414 kts 298°
2026-05-05 14:29 -22.58835 131.78278 36207 ft 414 kts 298°
2026-05-05 14:30 -22.55746 131.73017 36206 ft 414 kts 298°
2026-05-05 14:30 -22.52654 131.67753 36207 ft 414 kts 298°
2026-05-05 14:31 -22.49584 131.62532 36204 ft 414 kts 298°
2026-05-05 14:31 -22.46491 131.57278 36195 ft 415 kts 298°
2026-05-05 14:32 -22.43389 131.52014 36198 ft 415 kts 298°
2026-05-05 14:32 -22.40291 131.46761 36195 ft 414 kts 298°
2026-05-05 14:33 -22.37192 131.41512 36192 ft 414 kts 298°
2026-05-05 14:33 -22.34109 131.36296 36192 ft 414 kts 298°
2026-05-05 14:34 -22.31012 131.31061 36172 ft 414 kts 298°
2026-05-05 14:34 -22.27906 131.25815 36186 ft 414 kts 298°
2026-05-05 14:35 -22.24800 131.20576 36174 ft 414 kts 298°
2026-05-05 14:35 -22.21712 131.15371 36177 ft 414 kts 298°
2026-05-05 14:36 -22.18603 131.10137 36171 ft 414 kts 298°
2026-05-05 14:36 -22.15492 131.04903 36150 ft 414 kts 298°
2026-05-05 14:37 -22.12380 130.99673 36171 ft 415 kts 298°
2026-05-05 14:37 -22.09277 130.94463 36165 ft 415 kts 298°
2026-05-05 14:38 -22.06153 130.89224 36157 ft 415 kts 298°
2026-05-05 14:38 -22.03026 130.83984 36157 ft 416 kts 298°
2026-05-05 14:39 -21.99896 130.78745 36157 ft 416 kts 298°
2026-05-05 14:39 -21.96760 130.73502 36153 ft 416 kts 298°
2026-05-05 14:40 -21.93642 130.68293 36153 ft 417 kts 298°
2026-05-05 14:40 -21.90495 130.63044 36154 ft 417 kts 298°
2026-05-05 14:41 -21.87351 130.57802 36152 ft 417 kts 298°
2026-05-05 14:41 -21.84206 130.52562 36145 ft 417 kts 298°
2026-05-05 14:42 -21.81079 130.47358 36128 ft 417 kts 298°
2026-05-05 14:42 -21.77926 130.42118 36139 ft 417 kts 298°
2026-05-05 14:43 -21.74774 130.36885 36135 ft 417 kts 298°
2026-05-05 14:43 -21.71621 130.31654 36132 ft 417 kts 298°
2026-05-05 14:44 -21.68486 130.26458 36134 ft 417 kts 298°
2026-05-05 14:44 -21.65331 130.21235 36110 ft 416 kts 298°
2026-05-05 14:45 -21.62170 130.16005 36128 ft 418 kts 298°
2026-05-05 14:45 -21.59005 130.10774 36127 ft 418 kts 298°
2026-05-05 14:46 -21.55854 130.05572 36121 ft 418 kts 298°
2026-05-05 14:46 -21.52684 130.00343 36122 ft 418 kts 298°
2026-05-05 14:47 -21.49515 129.95121 36121 ft 417 kts 298°
2026-05-05 14:47 -21.46360 129.89925 36120 ft 419 kts 298°
2026-05-05 14:48 -21.43176 129.84687 36121 ft 419 kts 298°
2026-05-05 14:48 -21.39987 129.79449 36127 ft 419 kts 298°
2026-05-05 14:49 -21.36801 129.74219 36118 ft 419 kts 298°
2026-05-05 14:49 -21.33610 129.68986 36119 ft 419 kts 298°
2026-05-05 14:50 -21.30444 129.63797 36100 ft 419 kts 298°
2026-05-05 14:50 -21.27248 129.58563 36116 ft 420 kts 298°
2026-05-05 14:51 -21.24042 129.53320 36113 ft 420 kts 298°
2026-05-05 14:51 -21.20837 129.48083 36113 ft 420 kts 298°
2026-05-05 14:52 -21.17651 129.42882 36113 ft 420 kts 298°
2026-05-05 14:52 -21.14443 129.37649 36110 ft 420 kts 298°
2026-05-05 14:53 -21.11227 129.32409 36111 ft 421 kts 297°
2026-05-05 14:53 -21.08005 129.27163 36108 ft 422 kts 297°
2026-05-05 14:54 -21.04798 129.21949 36108 ft 422 kts 297°
2026-05-05 14:54 -21.01567 129.16699 36105 ft 422 kts 297°
2026-05-05 14:55 -20.98338 129.11458 36111 ft 422 kts 297°
2026-05-05 14:55 -20.95106 129.06217 36085 ft 421 kts 297°
2026-05-05 14:56 -20.91895 129.01012 36102 ft 423 kts 297°
2026-05-05 14:56 -20.88653 128.95763 36102 ft 423 kts 297°
2026-05-05 14:57 -20.85407 128.90513 36099 ft 423 kts 297°
2026-05-05 14:57 -20.82159 128.85266 36100 ft 422 kts 297°
2026-05-05 14:58 -20.78939 128.80068 36100 ft 422 kts 297°
2026-05-05 14:58 -20.75697 128.74838 36098 ft 423 kts 297°
2026-05-05 14:59 -20.72440 128.69589 36093 ft 424 kts 297°
2026-05-05 14:59 -20.69182 128.64344 36097 ft 424 kts 297°
2026-05-05 15:00 -20.66473 128.59989 36100 ft 423 kts 297°
2026-05-05 15:00 -20.62694 128.53916 36096 ft 422 kts 297°
2026-05-05 15:01 -20.59444 128.48696 36094 ft 423 kts 297°
2026-05-05 15:01 -20.56182 128.43461 36091 ft 424 kts 298°
2026-05-05 15:02 -20.52933 128.38254 36092 ft 425 kts 298°
2026-05-05 15:02 -20.49656 128.33007 36090 ft 425 kts 298°
2026-05-05 15:03 -20.46381 128.27768 36086 ft 425 kts 298°
2026-05-05 15:03 -20.43104 128.22532 36090 ft 425 kts 298°
2026-05-05 15:04 -20.39823 128.17292 36079 ft 424 kts 298°
2026-05-05 15:04 -20.36559 128.12084 36087 ft 426 kts 298°
2026-05-05 15:05 -20.31621 128.04214 36084 ft 426 kts 298°
2026-05-05 15:06 -20.28323 127.98965 36085 ft 426 kts 298°
2026-05-05 15:06 -20.25050 127.93760 36096 ft 426 kts 298°
2026-05-05 15:07 -20.21763 127.88540 36076 ft 424 kts 298°
2026-05-05 15:07 -20.18474 127.83317 36076 ft 426 kts 298°
2026-05-05 15:08 -20.15173 127.78077 36074 ft 427 kts 298°
2026-05-05 15:08 -20.11866 127.72836 36075 ft 427 kts 298°
2026-05-05 15:09 -20.08577 127.67631 36072 ft 426 kts 298°
2026-05-05 15:09 -20.05271 127.62402 36072 ft 426 kts 298°
2026-05-05 15:10 -20.01966 127.57177 36068 ft 426 kts 298°
2026-05-05 15:10 -19.98656 127.51950 36064 ft 426 kts 298°
2026-05-05 15:11 -19.95367 127.46761 36069 ft 426 kts 298°
2026-05-05 15:11 -19.92060 127.41550 36061 ft 425 kts 298°
2026-05-05 15:12 -19.88751 127.36338 36061 ft 425 kts 298°
2026-05-05 15:12 -19.85444 127.31134 36061 ft 425 kts 298°
2026-05-05 15:13 -19.82132 127.25926 36051 ft 426 kts 298°
2026-05-05 15:13 -19.78829 127.20734 36057 ft 428 kts 298°
2026-05-05 15:14 -19.75494 127.15501 36058 ft 427 kts 298°
2026-05-05 15:14 -19.72163 127.10279 36053 ft 427 kts 298°
2026-05-05 15:15 -19.68831 127.05060 36056 ft 427 kts 298°
2026-05-05 15:15 -19.65517 126.99872 36051 ft 427 kts 298°
2026-05-05 15:16 -19.62178 126.94649 36048 ft 428 kts 298°
2026-05-05 15:16 -19.58827 126.89410 36046 ft 430 kts 298°
2026-05-05 15:17 -19.55468 126.84166 36043 ft 430 kts 298°
2026-05-05 15:17 -19.52129 126.78959 36042 ft 430 kts 298°
2026-05-05 15:18 -19.48764 126.73714 36046 ft 430 kts 298°
2026-05-05 15:18 -19.45400 126.68477 36036 ft 429 kts 298°
2026-05-05 15:19 -19.42039 126.63249 36028 ft 430 kts 298°
2026-05-05 15:19 -19.38685 126.58042 36034 ft 431 kts 298°
2026-05-05 15:20 -19.35297 126.52791 36035 ft 431 kts 298°
2026-05-05 15:20 -19.31913 126.47552 36041 ft 431 kts 298°
2026-05-05 15:21 -19.28531 126.42320 36032 ft 430 kts 298°
2026-05-05 15:21 -19.25155 126.37100 36027 ft 430 kts 298°
2026-05-05 15:22 -19.21795 126.31908 36027 ft 431 kts 298°
2026-05-05 15:22 -19.18402 126.26669 36031 ft 432 kts 298°
2026-05-05 15:23 -19.15001 126.21424 36029 ft 432 kts 298°
2026-05-05 15:23 -19.11609 126.16199 36030 ft 431 kts 298°
2026-05-05 15:24 -19.08236 126.11008 36029 ft 431 kts 298°
2026-05-05 15:24 -19.04844 126.05788 36028 ft 431 kts 298°
2026-05-05 15:25 -19.01445 126.00562 36023 ft 432 kts 298°
2026-05-05 15:25 -18.98038 125.95330 36021 ft 433 kts 298°
2026-05-05 15:26 -18.94647 125.90128 36022 ft 433 kts 298°
2026-05-05 15:26 -18.91236 125.84898 36018 ft 432 kts 298°
2026-05-05 15:27 -18.87820 125.79666 36019 ft 432 kts 298°
2026-05-05 15:27 -18.84407 125.74441 36019 ft 432 kts 298°
2026-05-05 15:28 -18.81011 125.69247 36010 ft 433 kts 298°
2026-05-05 15:28 -18.77587 125.64015 36004 ft 434 kts 298°
2026-05-05 15:29 -18.74155 125.58775 36022 ft 434 kts 298°
2026-05-05 15:29 -18.70726 125.53544 36001 ft 434 kts 298°
2026-05-05 15:30 -18.67313 125.48343 36001 ft 434 kts 298°
2026-05-05 15:30 -18.63883 125.43118 36017 ft 433 kts 298°
2026-05-05 15:31 -18.60449 125.37893 36000 ft 434 kts 298°
2026-05-05 15:31 -18.56996 125.32640 35999 ft 437 kts 298°
2026-05-05 15:32 -18.53536 125.27383 35999 ft 437 kts 298°
2026-05-05 15:32 -18.50093 125.22159 35994 ft 436 kts 298°
2026-05-05 15:33 -18.46640 125.16923 35994 ft 435 kts 298°
2026-05-05 15:33 -18.43186 125.11688 35991 ft 435 kts 298°
2026-05-05 15:34 -18.39733 125.06459 35978 ft 435 kts 298°
2026-05-05 15:34 -18.36289 125.01245 35986 ft 437 kts 298°
2026-05-05 15:35 -18.32814 124.95992 35989 ft 438 kts 298°
2026-05-05 15:35 -18.29330 124.90730 35981 ft 438 kts 298°
2026-05-05 15:36 -18.25848 124.85476 35979 ft 438 kts 298°
2026-05-05 15:36 -18.22384 124.80252 35978 ft 438 kts 298°
2026-05-05 15:37 -18.18900 124.75002 35973 ft 438 kts 298°
2026-05-05 15:37 -18.15404 124.69736 35977 ft 440 kts 299°
2026-05-05 15:38 -18.11895 124.64456 35974 ft 441 kts 299°
2026-05-05 15:38 -18.08377 124.59170 35974 ft 441 kts 299°
2026-05-05 15:39 -18.04885 124.53925 35970 ft 441 kts 299°
2026-05-05 15:39 -18.01368 124.48647 35971 ft 441 kts 299°
2026-05-05 15:40 -17.97846 124.43364 35971 ft 441 kts 299°
2026-05-05 15:40 -17.94323 124.38087 35971 ft 442 kts 299°
2026-05-05 15:41 -17.90822 124.32844 35969 ft 442 kts 299°
2026-05-05 15:41 -17.87293 124.27564 35971 ft 442 kts 299°
2026-05-05 15:42 -17.83761 124.22285 35971 ft 442 kts 299°
2026-05-05 15:42 -17.80232 124.17015 35971 ft 441 kts 299°
2026-05-05 15:43 -17.76702 124.11747 35967 ft 441 kts 299°
2026-05-05 15:43 -17.73195 124.06517 35959 ft 443 kts 299°
2026-05-05 15:44 -17.69644 124.01222 35952 ft 444 kts 299°
2026-05-05 15:44 -17.66088 123.95929 35945 ft 444 kts 299°
2026-05-05 15:45 -17.62554 123.90675 35938 ft 442 kts 299°
2026-05-05 15:45 -17.58920 123.85473 35939 ft 446 kts 304°
2026-05-05 15:46 -17.54621 123.80727 35969 ft 450 kts 307°
2026-05-05 15:46 -17.50175 123.76091 35969 ft 452 kts 308°
2026-05-05 15:47 -17.45696 123.71460 35969 ft 453 kts 308°
2026-05-05 15:47 -17.41244 123.66846 35970 ft 453 kts 308°
2026-05-05 15:48 -17.36777 123.62207 35964 ft 452 kts 308°
2026-05-05 15:48 -17.32308 123.57565 35966 ft 452 kts 308°
2026-05-05 15:49 -17.27873 123.52960 35947 ft 452 kts 308°
2026-05-05 15:49 -17.23395 123.48315 35964 ft 454 kts 308°
2026-05-05 15:50 -17.18910 123.43667 35971 ft 454 kts 308°
2026-05-05 15:50 -17.14424 123.39023 35970 ft 454 kts 308°
2026-05-05 15:51 -17.09937 123.34380 35972 ft 454 kts 308°
2026-05-05 15:51 -17.05473 123.29764 35972 ft 454 kts 308°
2026-05-05 15:52 -17.00981 123.25121 35974 ft 456 kts 309°
2026-05-05 15:52 -16.96466 123.20458 35971 ft 456 kts 309°
2026-05-05 15:53 -16.91953 123.15801 35971 ft 456 kts 309°
2026-05-05 15:53 -16.87462 123.11172 35971 ft 456 kts 309°
2026-05-05 15:54 -16.82941 123.06514 35971 ft 456 kts 309°
2026-05-05 15:54 -16.78424 123.01863 35963 ft 456 kts 309°
2026-05-05 15:55 -16.73892 122.97198 35972 ft 458 kts 309°
2026-05-05 15:55 -16.69354 122.92533 35971 ft 458 kts 309°
2026-05-05 15:56 -16.64838 122.87894 35972 ft 458 kts 309°
2026-05-05 15:56 -16.60300 122.83235 35974 ft 458 kts 309°
2026-05-05 15:57 -16.55757 122.78574 35970 ft 458 kts 309°
2026-05-05 15:57 -16.51978 122.74698 35976 ft 459 kts 309°
2026-05-05 15:58 -16.46674 122.69261 35974 ft 461 kts 309°
2026-05-05 15:58 -16.42101 122.64579 35971 ft 461 kts 309°
2026-05-05 15:59 -16.38303 122.60694 35971 ft 461 kts 309°
2026-05-05 15:59 -16.33731 122.56020 35966 ft 460 kts 309°
2026-05-05 16:00 -16.29160 122.51349 35940 ft 460 kts 309°
2026-05-05 16:00 -16.23835 122.45908 35966 ft 463 kts 309°
2026-05-05 16:01 -16.19237 122.41216 35972 ft 463 kts 309°
2026-05-05 16:01 -16.15411 122.37316 35970 ft 463 kts 309°
2026-05-05 16:02 -16.10028 122.31833 35971 ft 463 kts 309°
2026-05-05 16:02 -16.06204 122.27939 35973 ft 463 kts 309°
2026-05-05 16:03 -16.01606 122.23259 35968 ft 464 kts 309°
2026-05-05 16:03 -15.97019 122.18592 35961 ft 465 kts 309°
2026-05-05 16:04 -15.92400 122.13899 35974 ft 465 kts 309°
2026-05-05 16:04 -15.87025 122.08440 35971 ft 465 kts 309°
2026-05-05 16:05 -15.83156 122.04515 35971 ft 465 kts 309°
2026-05-05 16:05 -15.78562 121.99856 35981 ft 464 kts 309°
2026-05-05 16:06 -15.73940 121.95169 35969 ft 466 kts 309°
2026-05-05 16:06 -15.69300 121.90469 35971 ft 466 kts 309°
2026-05-05 16:07 -15.64684 121.85797 35970 ft 466 kts 309°
2026-05-05 16:07 -15.60047 121.81108 35973 ft 466 kts 309°
2026-05-05 16:08 -15.55404 121.76415 35976 ft 466 kts 309°
2026-05-05 16:08 -15.50761 121.71725 35974 ft 466 kts 309°
2026-05-05 16:09 -15.46123 121.67042 35974 ft 466 kts 309°
2026-05-05 16:09 -15.41510 121.62387 35974 ft 466 kts 309°
2026-05-05 16:10 -15.36871 121.57710 35976 ft 466 kts 309°
2026-05-05 16:10 -15.32223 121.53028 35977 ft 466 kts 309°
2026-05-05 16:11 -15.27575 121.48349 35977 ft 466 kts 309°
2026-05-05 16:12 -15.18312 121.39030 35974 ft 466 kts 309°
2026-05-05 16:13 -15.06682 121.27348 35977 ft 466 kts 309°
2026-05-05 16:13 -15.02062 121.22714 35978 ft 466 kts 309°
2026-05-05 16:14 -14.92757 121.13388 35976 ft 466 kts 309°
2026-05-05 16:15 -14.83487 121.04107 35974 ft 465 kts 309°
2026-05-05 16:16 -14.74176 120.94798 35974 ft 465 kts 309°
2026-05-05 16:17 -14.67191 120.87822 35982 ft 466 kts 310°
2026-05-05 16:18 -14.60231 120.80878 35980 ft 466 kts 310°
2026-05-05 16:19 -14.53239 120.73907 35964 ft 466 kts 310°
2026-05-05 16:19 -14.46246 120.66943 35962 ft 466 kts 310°
2026-05-05 16:20 -14.36927 120.57671 35969 ft 468 kts 310°
2026-05-05 16:22 -14.25218 120.46040 35968 ft 467 kts 310°
2026-05-05 16:23 -14.15878 120.36772 35967 ft 468 kts 310°
2026-05-05 16:23 -14.08830 120.29787 35969 ft 468 kts 310°
2026-05-05 16:24 -14.04135 120.25138 35968 ft 468 kts 310°
2026-05-05 16:25 -13.97118 120.18195 35964 ft 468 kts 310°
2026-05-05 16:25 -13.90066 120.11221 35967 ft 470 kts 310°
2026-05-05 16:26 -13.80654 120.01925 35968 ft 471 kts 311°
2026-05-05 16:27 -13.75926 119.97260 35968 ft 471 kts 311°
2026-05-05 16:27 -13.71197 119.92596 35968 ft 471 kts 311°
2026-05-05 16:28 -13.66499 119.87965 35966 ft 471 kts 311°
2026-05-05 16:28 -13.61766 119.83303 35964 ft 472 kts 311°
2026-05-05 16:29 -13.57014 119.78623 35963 ft 473 kts 311°
2026-05-05 16:29 -13.52259 119.73945 35963 ft 474 kts 311°
2026-05-05 16:30 -13.47497 119.69263 35966 ft 474 kts 311°
2026-05-05 16:30 -13.42772 119.64620 35966 ft 474 kts 311°
2026-05-05 16:31 -13.38009 119.59942 35960 ft 474 kts 311°
2026-05-05 16:31 -13.33243 119.55262 35960 ft 475 kts 311°
2026-05-05 16:32 -13.28466 119.50575 35963 ft 475 kts 311°
2026-05-05 16:32 -13.23722 119.45925 35963 ft 475 kts 311°
2026-05-05 16:33 -13.18940 119.41239 35961 ft 475 kts 311°
2026-05-05 16:33 -13.14156 119.36553 35960 ft 475 kts 311°
2026-05-05 16:34 -13.09381 119.31879 35960 ft 475 kts 311°
2026-05-05 16:34 -13.04592 119.27192 35958 ft 477 kts 311°
2026-05-05 16:35 -12.99819 119.22525 35957 ft 478 kts 311°
2026-05-05 16:35 -12.95006 119.17823 35957 ft 478 kts 311°
2026-05-05 16:36 -12.90195 119.13125 35958 ft 477 kts 311°
2026-05-05 16:36 -12.85384 119.08430 35958 ft 477 kts 311°
2026-05-05 16:37 -12.80578 119.03741 35955 ft 478 kts 311°
2026-05-05 16:37 -12.75797 118.99079 35957 ft 478 kts 311°
2026-05-05 16:38 -12.70983 118.94387 35956 ft 478 kts 312°
2026-05-05 16:38 -12.66168 118.89698 35957 ft 478 kts 312°
2026-05-05 16:39 -12.61351 118.85009 35955 ft 478 kts 312°
2026-05-05 16:39 -12.56570 118.80358 35955 ft 478 kts 312°
2026-05-05 16:40 -12.51759 118.75679 35946 ft 477 kts 312°
2026-05-05 16:40 -12.46937 118.70992 35955 ft 478 kts 312°
2026-05-05 16:41 -12.42108 118.66302 35946 ft 479 kts 312°
2026-05-05 16:41 -12.37308 118.61642 35952 ft 479 kts 312°
2026-05-05 16:42 -12.32478 118.56956 35952 ft 479 kts 312°
2026-05-05 16:42 -12.27641 118.52266 35952 ft 479 kts 312°
2026-05-05 16:43 -12.22810 118.47583 35949 ft 479 kts 313°
2026-05-05 16:43 -12.18000 118.42922 35952 ft 480 kts 313°
2026-05-05 16:44 -12.13150 118.38227 35950 ft 480 kts 313°
2026-05-05 16:44 -12.08298 118.33532 35949 ft 480 kts 313°
2026-05-05 16:45 -12.03449 118.28843 35952 ft 480 kts 313°
2026-05-05 16:45 -11.98633 118.24188 35952 ft 480 kts 313°
2026-05-05 16:46 -11.93780 118.19500 35946 ft 480 kts 313°
2026-05-05 16:46 -11.88927 118.14813 35952 ft 480 kts 313°
2026-05-05 16:47 -11.84080 118.10134 35950 ft 480 kts 313°
2026-05-05 16:47 -11.79259 118.05483 35943 ft 480 kts 313°
2026-05-05 16:48 -11.74410 118.00808 35946 ft 480 kts 313°
2026-05-05 16:48 -11.69558 117.96132 35947 ft 480 kts 313°
2026-05-05 16:49 -11.64705 117.91458 35943 ft 480 kts 313°
2026-05-05 16:49 -11.59881 117.86813 35947 ft 480 kts 313°
2026-05-05 16:50 -11.55023 117.82139 35947 ft 481 kts 313°
2026-05-05 16:50 -11.50154 117.77456 35946 ft 481 kts 313°
2026-05-05 16:51 -11.45293 117.72784 35946 ft 481 kts 313°
2026-05-05 16:51 -11.40428 117.68109 35946 ft 481 kts 313°
2026-05-05 16:52 -11.35592 117.63465 35947 ft 481 kts 313°
2026-05-05 16:52 -11.30715 117.58783 35946 ft 483 kts 313°
2026-05-05 16:53 -11.25826 117.54093 35947 ft 483 kts 313°
2026-05-05 16:53 -11.20927 117.49396 35946 ft 484 kts 313°
2026-05-05 16:54 -11.16059 117.44731 35944 ft 483 kts 313°
2026-05-05 16:54 -11.11165 117.40042 35939 ft 483 kts 313°
2026-05-05 16:55 -11.06265 117.35350 35944 ft 483 kts 313°
2026-05-05 16:55 -11.01361 117.30657 35944 ft 484 kts 313°
2026-05-05 16:56 -10.96484 117.25991 35938 ft 485 kts 313°
2026-05-05 16:56 -10.91566 117.21290 35938 ft 485 kts 313°
2026-05-05 16:57 -10.86649 117.16591 35935 ft 485 kts 313°
2026-05-05 16:57 -10.81763 117.11924 35937 ft 485 kts 314°
2026-05-05 16:58 -10.76845 117.07228 35937 ft 485 kts 314°
2026-05-05 16:58 -10.71928 117.02534 35938 ft 486 kts 314°
2026-05-05 16:59 -10.66997 116.97831 35937 ft 486 kts 314°
2026-05-05 16:59 -10.62069 116.93133 35937 ft 486 kts 314°
2026-05-05 17:00 -10.57165 116.88461 35940 ft 486 kts 314°
2026-05-05 17:00 -10.52235 116.83764 35941 ft 486 kts 314°
2026-05-05 17:01 -10.47299 116.79064 35942 ft 486 kts 314°
2026-05-05 17:01 -10.42359 116.74363 35937 ft 487 kts 314°
2026-05-05 17:02 -10.37444 116.69688 35934 ft 487 kts 314°
2026-05-05 17:02 -10.32501 116.64988 35934 ft 487 kts 314°
2026-05-05 17:03 -10.27553 116.60286 35939 ft 487 kts 314°
2026-05-05 17:03 -10.22605 116.55585 35938 ft 487 kts 314°
2026-05-05 17:04 -10.17687 116.50916 35937 ft 487 kts 314°
2026-05-05 17:04 -10.12742 116.46222 35932 ft 487 kts 314°
2026-05-05 17:05 -10.07782 116.41516 35932 ft 489 kts 314°
2026-05-05 17:05 -10.02814 116.36805 35932 ft 489 kts 314°
2026-05-05 17:06 -9.97844 116.32095 35935 ft 489 kts 314°
2026-05-05 17:06 -9.92880 116.27392 35935 ft 489 kts 314°
2026-05-05 17:07 -9.87942 116.22716 35932 ft 489 kts 314°
2026-05-05 17:07 -9.82973 116.18012 35932 ft 489 kts 314°
2026-05-05 17:08 -9.78000 116.13307 35934 ft 489 kts 314°
2026-05-05 17:08 -9.73029 116.08605 35932 ft 489 kts 314°
2026-05-05 17:09 -9.68094 116.03939 35936 ft 489 kts 314°
2026-05-05 17:09 -9.63122 115.99240 35932 ft 489 kts 314°
2026-05-05 17:10 -9.58149 115.94543 35931 ft 489 kts 314°
2026-05-05 17:10 -9.53175 115.89847 35928 ft 489 kts 314°
2026-05-05 17:11 -9.48228 115.85177 35927 ft 490 kts 315°
2026-05-05 17:11 -9.43238 115.80470 35926 ft 490 kts 315°
2026-05-05 17:12 -9.38252 115.75768 35931 ft 490 kts 315°
2026-05-05 17:12 -9.33261 115.71063 35929 ft 490 kts 315°
2026-05-05 17:13 -9.28301 115.66390 35926 ft 490 kts 315°
2026-05-05 17:13 -9.23312 115.61692 35930 ft 490 kts 315°
2026-05-05 17:14 -9.18320 115.56991 35927 ft 491 kts 315°
2026-05-05 17:14 -9.13320 115.52286 35927 ft 491 kts 315°
2026-05-05 17:15 -9.08318 115.47580 35924 ft 491 kts 315°
2026-05-05 17:15 -9.03347 115.42906 35924 ft 491 kts 315°
2026-05-05 17:16 -8.98344 115.38203 35927 ft 491 kts 315°
2026-05-05 17:16 -8.93340 115.33502 35927 ft 491 kts 315°
2026-05-05 17:17 -8.88342 115.28806 35913 ft 491 kts 315°
2026-05-05 17:17 -8.83331 115.24102 35912 ft 491 kts 315°
2026-05-05 17:18 -8.78353 115.19431 35910 ft 492 kts 315°
2026-05-05 17:18 -8.72961 115.15171 35912 ft 494 kts 326°
2026-05-05 17:19 -8.67064 115.11586 35910 ft 495 kts 328°
2026-05-05 17:19 -8.61132 115.08126 35918 ft 495 kts 328°
2026-05-05 17:20 -8.55163 115.04653 35923 ft 495 kts 328°
2026-05-05 17:20 -8.49198 115.01165 35932 ft 495 kts 328°
2026-05-05 17:21 -8.43234 114.97669 35939 ft 496 kts 328°
2026-05-05 17:22 -8.34334 114.92452 35928 ft 496 kts 328°
2026-05-05 17:22 -8.28368 114.88958 35927 ft 496 kts 328°
2026-05-05 17:23 -8.22402 114.85462 35924 ft 495 kts 328°
2026-05-05 17:23 -8.16438 114.81972 35925 ft 495 kts 328°
2026-05-05 17:24 -8.10479 114.78490 35915 ft 495 kts 328°
2026-05-05 17:24 -8.04556 114.75027 35912 ft 495 kts 328°
2026-05-05 17:25 -7.98592 114.71540 35905 ft 495 kts 328°
2026-05-05 17:25 -7.92628 114.68055 35901 ft 495 kts 328°
2026-05-05 17:26 -7.86663 114.64569 35905 ft 496 kts 328°
2026-05-05 17:26 -7.80732 114.61106 35899 ft 496 kts 328°
2026-05-05 17:27 -7.74769 114.57624 35899 ft 496 kts 328°
2026-05-05 17:27 -7.68798 114.54140 35902 ft 496 kts 328°
2026-05-05 17:28 -7.62828 114.50657 35896 ft 496 kts 328°
2026-05-05 17:28 -7.56896 114.47196 35895 ft 495 kts 328°
2026-05-05 17:29 -7.50940 114.43724 35896 ft 495 kts 328°
2026-05-05 17:29 -7.44975 114.40249 35885 ft 495 kts 328°
2026-05-05 17:30 -7.39026 114.36776 35884 ft 495 kts 328°
2026-05-05 17:30 -7.33117 114.33317 35885 ft 494 kts 328°
2026-05-05 17:31 -7.27167 114.29837 35885 ft 494 kts 328°
2026-05-05 17:31 -7.21222 114.26363 35883 ft 494 kts 328°
2026-05-05 17:32 -7.15289 114.22898 35882 ft 493 kts 328°
2026-05-05 17:32 -7.09353 114.19434 35880 ft 493 kts 328°
2026-05-05 17:33 -7.03457 114.15993 35882 ft 493 kts 329°
2026-05-05 17:33 -6.97518 114.12527 35879 ft 493 kts 328°
2026-05-05 17:34 -6.91587 114.09068 35879 ft 493 kts 329°
2026-05-05 17:34 -6.85646 114.05604 35878 ft 493 kts 328°
2026-05-05 17:35 -6.79754 114.02169 35882 ft 493 kts 328°
2026-05-05 17:35 -6.73827 113.98714 35880 ft 492 kts 329°
2026-05-05 17:36 -6.67896 113.95258 35879 ft 493 kts 329°
2026-05-05 17:36 -6.61963 113.91803 35878 ft 492 kts 329°
2026-05-05 17:37 -6.56068 113.88371 35879 ft 493 kts 328°
2026-05-05 17:37 -6.50136 113.84918 35874 ft 493 kts 329°
2026-05-05 17:38 -6.44196 113.81468 35876 ft 493 kts 329°
2026-05-05 17:38 -6.38249 113.78048 35875 ft 493 kts 329°
2026-05-05 17:39 -6.32341 113.74657 35876 ft 492 kts 329°
2026-05-05 17:39 -6.26389 113.71238 35875 ft 493 kts 329°
2026-05-05 17:40 -6.20432 113.67815 35876 ft 493 kts 329°
2026-05-05 17:40 -6.14471 113.64389 35875 ft 494 kts 329°
2026-05-05 17:41 -6.08548 113.60988 35878 ft 493 kts 329°
2026-05-05 17:41 -6.02587 113.57565 35874 ft 494 kts 329°
2026-05-05 17:42 -5.96628 113.54144 35878 ft 493 kts 329°
2026-05-05 17:42 -5.90662 113.50719 35880 ft 494 kts 330°
2026-05-05 17:43 -5.84693 113.47295 35873 ft 495 kts 330°
2026-05-05 17:43 -5.78746 113.43885 35872 ft 495 kts 330°
2026-05-05 17:44 -5.72766 113.40455 35871 ft 495 kts 330°
2026-05-05 17:44 -5.66789 113.37029 35872 ft 494 kts 330°
2026-05-05 17:45 -5.60855 113.33628 35872 ft 495 kts 330°
2026-05-05 17:45 -5.54882 113.30204 35871 ft 495 kts 330°
2026-05-05 17:46 -5.48889 113.26771 35868 ft 496 kts 330°
2026-05-05 17:46 -5.42894 113.23337 35872 ft 496 kts 330°
2026-05-05 17:47 -5.36900 113.19905 35872 ft 496 kts 330°
2026-05-05 17:47 -5.30945 113.16496 35872 ft 496 kts 330°
2026-05-05 17:48 -5.24947 113.13063 35869 ft 496 kts 331°
2026-05-05 17:48 -5.18948 113.09630 35868 ft 496 kts 330°
2026-05-05 17:49 -5.12986 113.06218 35863 ft 496 kts 331°
2026-05-05 17:49 -5.06999 113.02794 35860 ft 496 kts 331°
2026-05-05 17:50 -5.01003 112.99365 35861 ft 496 kts 331°
2026-05-05 17:50 -4.95011 112.95939 35860 ft 496 kts 331°
2026-05-05 17:51 -4.89012 112.92509 35860 ft 496 kts 331°
2026-05-05 17:51 -4.83054 112.89104 35863 ft 497 kts 331°
2026-05-05 17:52 -4.77046 112.85671 35863 ft 497 kts 331°
2026-05-05 17:52 -4.71039 112.82240 35861 ft 497 kts 331°
2026-05-05 17:53 -4.65030 112.78808 35860 ft 497 kts 331°
2026-05-05 17:53 -4.59067 112.75402 35856 ft 496 kts 331°
2026-05-05 17:54 -4.53078 112.71982 35860 ft 495 kts 332°
2026-05-05 17:54 -4.47095 112.68567 35859 ft 495 kts 331°
2026-05-05 17:55 -4.41113 112.65153 35861 ft 495 kts 331°
2026-05-05 17:55 -4.35176 112.61765 35858 ft 495 kts 332°
2026-05-05 17:56 -4.29199 112.58355 35857 ft 494 kts 331°
2026-05-05 17:56 -4.23215 112.54942 35859 ft 495 kts 332°
2026-05-05 17:57 -4.17226 112.51526 35856 ft 496 kts 331°
2026-05-05 17:57 -4.11261 112.48125 35857 ft 497 kts 332°
2026-05-05 17:58 -4.05256 112.44702 35859 ft 497 kts 332°
2026-05-05 17:58 -3.99244 112.41275 35860 ft 497 kts 332°
2026-05-05 17:59 -3.93229 112.37847 35855 ft 497 kts 331°
2026-05-05 17:59 -3.87211 112.34417 35857 ft 498 kts 332°
2026-05-05 18:00 -3.81226 112.31008 35863 ft 500 kts 332°
2026-05-05 18:00 -3.75180 112.27564 35859 ft 500 kts 332°
2026-05-05 18:01 -3.69132 112.24120 35856 ft 500 kts 332°
2026-05-05 18:01 -3.63085 112.20676 35854 ft 500 kts 332°
2026-05-05 18:02 -3.57077 112.17255 35861 ft 500 kts 332°
2026-05-05 18:02 -3.51028 112.13812 35861 ft 500 kts 332°
2026-05-05 18:03 -3.44984 112.10371 35859 ft 500 kts 332°
2026-05-05 18:03 -3.38929 112.06925 35862 ft 500 kts 332°
2026-05-05 18:04 -3.32927 112.03510 35862 ft 500 kts 332°
2026-05-05 18:04 -3.26882 112.00070 35862 ft 500 kts 332°
2026-05-05 18:05 -3.20836 111.96631 35863 ft 500 kts 332°
2026-05-05 18:05 -3.14796 111.93196 35862 ft 500 kts 332°
2026-05-05 18:06 -3.08787 111.89778 35862 ft 500 kts 332°
2026-05-05 18:06 -3.02746 111.86343 35862 ft 500 kts 332°
2026-05-05 18:07 -2.96697 111.82904 35865 ft 500 kts 332°
2026-05-05 18:07 -2.90650 111.79466 35864 ft 500 kts 331°
2026-05-05 18:08 -2.84605 111.76030 35865 ft 499 kts 331°
2026-05-05 18:08 -2.78609 111.72623 35863 ft 500 kts 331°
2026-05-05 18:09 -2.72602 111.69091 35864 ft 502 kts 326°
2026-05-05 18:09 -2.67199 111.64668 35865 ft 502 kts 320°
2026-05-05 18:10 -2.61978 111.60021 35866 ft 503 kts 319°
2026-05-05 18:10 -2.56814 111.55371 35862 ft 503 kts 319°
2026-05-05 18:11 -2.51610 111.50703 35870 ft 503 kts 319°
2026-05-05 18:11 -2.46395 111.46042 35868 ft 503 kts 319°
2026-05-05 18:12 -2.41175 111.41381 35867 ft 503 kts 319°
2026-05-05 18:12 -2.35989 111.36752 35864 ft 503 kts 319°
2026-05-05 18:13 -2.30770 111.32092 35867 ft 503 kts 319°
2026-05-05 18:13 -2.25556 111.27438 35868 ft 503 kts 319°
2026-05-05 18:14 -2.20335 111.22777 35868 ft 503 kts 319°
2026-05-05 18:14 -2.15150 111.18149 35868 ft 503 kts 319°
2026-05-05 18:15 -2.09931 111.13492 35873 ft 504 kts 319°
2026-05-05 18:15 -2.04696 111.08823 35877 ft 504 kts 319°
2026-05-05 18:16 -1.99466 111.04146 35874 ft 504 kts 319°
2026-05-05 18:16 -1.94245 110.99458 35871 ft 504 kts 319°
2026-05-05 18:17 -1.89059 110.94805 35871 ft 504 kts 319°
2026-05-05 18:17 -1.83834 110.90123 35876 ft 504 kts 319°
2026-05-05 18:18 -1.78605 110.85440 35878 ft 505 kts 319°
2026-05-05 18:18 -1.73370 110.80751 35875 ft 506 kts 319°
2026-05-05 18:19 -1.68157 110.76084 35876 ft 507 kts 319°
2026-05-05 18:19 -1.62903 110.71380 35873 ft 507 kts 319°
2026-05-05 18:20 -1.57652 110.66678 35874 ft 507 kts 319°
2026-05-05 18:20 -1.52399 110.61974 35873 ft 507 kts 319°
2026-05-05 18:21 -1.47179 110.57301 35865 ft 507 kts 319°
2026-05-05 18:21 -1.41926 110.52598 35865 ft 507 kts 319°
2026-05-05 18:22 -1.36661 110.47885 35865 ft 508 kts 319°
2026-05-05 18:22 -1.31392 110.43169 35864 ft 509 kts 319°
2026-05-05 18:23 -1.26096 110.38470 35864 ft 509 kts 320°
2026-05-05 18:23 -1.20740 110.33906 35865 ft 509 kts 320°
2026-05-05 18:24 -1.15334 110.29328 35862 ft 509 kts 320°
2026-05-05 18:24 -1.09946 110.24738 35860 ft 509 kts 320°
2026-05-05 18:25 -1.04565 110.20137 35857 ft 509 kts 320°
2026-05-05 18:25 -0.99213 110.15559 35857 ft 510 kts 320°
2026-05-05 18:26 -0.93822 110.10948 35857 ft 510 kts 320°
2026-05-05 18:26 -0.88433 110.06339 35856 ft 510 kts 320°
2026-05-05 18:27 -0.83041 110.01729 35854 ft 510 kts 320°
2026-05-05 18:27 -0.77646 109.97115 35854 ft 510 kts 320°
2026-05-05 18:28 -0.69595 109.90232 35854 ft 510 kts 320°
2026-05-05 18:28 -0.64192 109.85613 35853 ft 511 kts 320°
2026-05-05 18:29 -0.58787 109.80992 35854 ft 511 kts 320°
2026-05-05 18:29 -0.53380 109.76370 35854 ft 511 kts 320°
2026-05-05 18:30 -0.48015 109.71783 35854 ft 511 kts 320°
2026-05-05 18:30 -0.42620 109.67171 35854 ft 511 kts 320°
2026-05-05 18:31 -0.37219 109.62554 35850 ft 511 kts 320°
2026-05-05 18:31 -0.31818 109.57937 35851 ft 511 kts 320°
2026-05-05 18:32 -0.26458 109.53355 35851 ft 510 kts 320°
2026-05-05 18:32 -0.21068 109.48747 35848 ft 510 kts 320°
2026-05-05 18:33 -0.15674 109.44136 35848 ft 510 kts 320°
2026-05-05 18:33 -0.10280 109.39526 35851 ft 510 kts 320°
2026-05-05 18:34 -0.04951 109.34915 35848 ft 510 kts 318°
2026-05-05 18:34 0.00235 109.30080 35851 ft 510 kts 317°
2026-05-05 18:35 0.05396 109.25209 35848 ft 510 kts 317°
2026-05-05 18:35 0.10584 109.20367 35848 ft 510 kts 318°
2026-05-05 18:36 0.15753 109.15576 35848 ft 510 kts 318°
2026-05-05 18:36 0.20962 109.10755 35848 ft 510 kts 318°
2026-05-05 18:37 0.26160 109.05943 35848 ft 510 kts 318°
2026-05-05 18:37 0.31362 109.01125 35848 ft 510 kts 318°
2026-05-05 18:38 0.36528 108.96340 35845 ft 510 kts 318°
2026-05-05 18:38 0.41724 108.91527 35845 ft 510 kts 318°
2026-05-05 18:39 0.46922 108.86712 35845 ft 510 kts 318°
2026-05-05 18:39 0.52122 108.81896 35846 ft 510 kts 318°
2026-05-05 18:40 0.57326 108.77083 35846 ft 510 kts 318°
2026-05-05 18:40 0.62476 108.72304 35845 ft 509 kts 318°
2026-05-05 18:41 0.67666 108.67487 35843 ft 509 kts 318°
2026-05-05 18:41 0.72851 108.62678 35841 ft 509 kts 318°
2026-05-05 18:42 0.78030 108.57877 35840 ft 508 kts 318°
2026-05-05 18:42 0.83177 108.53104 35840 ft 508 kts 318°
2026-05-05 18:43 0.88357 108.48301 35840 ft 508 kts 318°
2026-05-05 18:43 0.93539 108.43497 35840 ft 508 kts 318°
2026-05-05 18:44 0.98715 108.38698 35839 ft 508 kts 318°
2026-05-05 18:44 1.03901 108.33889 35840 ft 508 kts 318°
2026-05-05 18:45 1.09040 108.29123 35840 ft 508 kts 318°
2026-05-05 18:45 1.14217 108.24322 35839 ft 508 kts 318°
2026-05-05 18:46 1.19393 108.19521 35840 ft 508 kts 318°
2026-05-05 18:46 1.24569 108.14721 35840 ft 508 kts 318°
2026-05-05 18:47 1.29745 108.09920 35840 ft 508 kts 318°
2026-05-05 18:47 1.34886 108.05151 35837 ft 508 kts 318°
2026-05-05 18:48 1.40056 108.00355 35837 ft 508 kts 318°
2026-05-05 18:48 1.45230 107.95552 35838 ft 508 kts 317°
2026-05-05 18:49 1.50351 107.90756 35837 ft 508 kts 317°
2026-05-05 18:49 1.55496 107.85932 35838 ft 508 kts 317°
2026-05-05 18:50 1.60651 107.81106 35834 ft 508 kts 317°
2026-05-05 18:50 1.65812 107.76279 35833 ft 508 kts 317°
2026-05-05 18:51 1.70962 107.71463 35834 ft 507 kts 317°
2026-05-05 18:51 1.76075 107.66681 35832 ft 506 kts 317°
2026-05-05 18:52 1.81219 107.61869 35831 ft 506 kts 317°
2026-05-05 18:52 1.86366 107.57054 35830 ft 507 kts 317°
2026-05-05 18:53 1.91516 107.52236 35832 ft 507 kts 317°
2026-05-05 18:53 1.95797 107.48230 35832 ft 507 kts 317°
2026-05-05 18:54 2.01782 107.42635 35829 ft 507 kts 318°
2026-05-05 18:54 2.06943 107.37827 35829 ft 507 kts 317°
2026-05-05 18:55 2.11230 107.33829 35829 ft 507 kts 318°
2026-05-05 18:55 2.17262 107.28205 35829 ft 507 kts 318°
2026-05-05 18:56 2.22390 107.23423 35829 ft 507 kts 318°
2026-05-05 18:56 2.26713 107.19393 35830 ft 507 kts 318°
2026-05-05 18:57 2.31841 107.14611 35829 ft 507 kts 318°
2026-05-05 18:57 2.36940 107.09732 35828 ft 508 kts 313°
2026-05-05 18:58 2.42420 107.03621 35833 ft 508 kts 312°
2026-05-05 18:58 2.46325 106.99161 35832 ft 508 kts 311°
2026-05-05 18:59 2.50940 106.93876 35832 ft 508 kts 311°
2026-05-05 18:59 2.55597 106.88555 35831 ft 508 kts 312°
2026-05-05 19:00 2.60259 106.83236 35831 ft 509 kts 312°
2026-05-05 19:00 2.64923 106.77915 35832 ft 509 kts 312°
2026-05-05 19:01 2.69557 106.72628 35829 ft 509 kts 312°
2026-05-05 19:01 2.74215 106.67312 35829 ft 508 kts 311°
2026-05-05 19:02 2.78881 106.61986 35829 ft 508 kts 311°
2026-05-05 19:02 2.83542 106.56665 35829 ft 508 kts 311°
2026-05-05 19:03 2.88207 106.51348 35829 ft 508 kts 312°
2026-05-05 19:03 2.92832 106.46068 35829 ft 508 kts 312°
2026-05-05 19:04 2.97498 106.40752 35829 ft 508 kts 312°
2026-05-05 19:04 3.02164 106.35438 35829 ft 508 kts 312°
2026-05-05 19:05 3.06831 106.30125 35828 ft 508 kts 312°
2026-05-05 19:05 3.11465 106.24848 35829 ft 508 kts 312°
2026-05-05 19:06 3.16134 106.19530 35826 ft 509 kts 312°
2026-05-05 19:06 3.20802 106.14211 35827 ft 508 kts 312°
2026-05-05 19:07 3.25471 106.08895 35829 ft 508 kts 312°
2026-05-05 19:07 3.30145 106.03585 35829 ft 508 kts 312°
2026-05-05 19:08 3.34777 105.98309 35830 ft 508 kts 312°
2026-05-05 19:08 3.39445 105.92994 35826 ft 508 kts 312°
2026-05-05 19:09 3.44112 105.87683 35826 ft 508 kts 312°
2026-05-05 19:09 3.48779 105.82371 35827 ft 508 kts 312°
2026-05-05 19:10 3.53408 105.77088 35826 ft 508 kts 311°
2026-05-05 19:10 3.58063 105.71765 35826 ft 508 kts 312°
2026-05-05 19:11 3.62724 105.66444 35826 ft 508 kts 312°
2026-05-05 19:11 3.67386 105.61126 35827 ft 508 kts 312°
2026-05-05 19:12 3.72043 105.55813 35826 ft 507 kts 312°
2026-05-05 19:12 3.76663 105.50549 35826 ft 507 kts 312°
2026-05-05 19:13 3.81327 105.45255 35823 ft 507 kts 312°
2026-05-05 19:13 3.85991 105.39961 35823 ft 507 kts 312°
2026-05-05 19:14 3.90654 105.34665 35826 ft 507 kts 312°
2026-05-05 19:14 3.95286 105.29402 35826 ft 507 kts 312°
2026-05-05 19:15 3.99950 105.24107 35826 ft 507 kts 312°
2026-05-05 19:15 4.04599 105.18802 35827 ft 507 kts 312°
2026-05-05 19:16 4.09241 105.13491 35826 ft 507 kts 312°
2026-05-05 19:16 4.13854 105.08216 35827 ft 507 kts 312°
2026-05-05 19:17 4.18502 105.02907 35820 ft 507 kts 312°
2026-05-05 19:17 4.23145 104.97608 35821 ft 506 kts 312°
2026-05-05 19:18 4.27799 104.92309 35823 ft 507 kts 312°
2026-05-05 19:18 4.32457 104.87007 35824 ft 507 kts 312°
2026-05-05 19:19 4.37079 104.81743 35823 ft 507 kts 312°
2026-05-05 19:19 4.41744 104.76433 35824 ft 507 kts 312°
2026-05-05 19:20 4.46404 104.71131 35823 ft 506 kts 312°
2026-05-05 19:20 4.51057 104.65835 35823 ft 506 kts 312°
2026-05-05 19:21 4.55678 104.60575 35827 ft 506 kts 312°
2026-05-05 19:21 4.60329 104.55280 35826 ft 506 kts 312°
2026-05-05 19:22 4.64980 104.49984 35826 ft 506 kts 312°
2026-05-05 19:22 4.69630 104.44688 35826 ft 506 kts 312°
2026-05-05 19:23 4.74249 104.39426 35826 ft 506 kts 312°
2026-05-05 19:23 4.78894 104.34133 35826 ft 506 kts 312°
2026-05-05 19:24 4.83542 104.28836 35826 ft 506 kts 312°
2026-05-05 19:24 4.88482 104.23844 35828 ft 504 kts 323°
2026-05-05 19:25 4.94120 104.19680 35826 ft 504 kts 326°
2026-05-05 19:25 4.99830 104.15675 35826 ft 504 kts 326°
2026-05-05 19:26 5.05593 104.11655 35826 ft 505 kts 326°
2026-05-05 19:26 5.11342 104.07623 35827 ft 505 kts 326°
2026-05-05 19:27 5.17090 104.03578 35827 ft 505 kts 326°
2026-05-05 19:27 5.22837 103.99531 35827 ft 505 kts 326°
2026-05-05 19:28 5.28547 103.95510 35826 ft 505 kts 326°
2026-05-05 19:28 5.34295 103.91461 35827 ft 505 kts 326°
2026-05-05 19:29 5.40042 103.87413 35826 ft 505 kts 326°
2026-05-05 19:29 5.45789 103.83363 35826 ft 505 kts 326°
2026-05-05 19:30 5.51508 103.79332 35826 ft 506 kts 326°
2026-05-05 19:30 5.57270 103.75270 35826 ft 506 kts 326°
2026-05-05 19:31 5.63023 103.71213 35825 ft 506 kts 326°
2026-05-05 19:31 5.68778 103.67153 35824 ft 506 kts 326°
2026-05-05 19:32 5.74534 103.63092 35823 ft 506 kts 326°
2026-05-05 19:32 5.80251 103.59058 35826 ft 506 kts 326°
2026-05-05 19:33 5.86006 103.54996 35823 ft 506 kts 326°
2026-05-05 19:33 5.91760 103.50933 35823 ft 506 kts 326°
2026-05-05 19:34 5.97517 103.46867 35826 ft 506 kts 326°
2026-05-05 19:35 6.06125 103.40785 35830 ft 507 kts 326°
2026-05-05 19:35 6.11891 103.36711 35829 ft 506 kts 326°
2026-05-05 19:36 6.17659 103.32641 35827 ft 507 kts 326°
2026-05-05 19:36 6.23395 103.28598 35826 ft 507 kts 326°
2026-05-05 19:37 6.29158 103.24530 35827 ft 507 kts 326°
2026-05-05 19:37 6.34929 103.20458 35828 ft 507 kts 326°
2026-05-05 19:38 6.40705 103.16381 35826 ft 508 kts 326°
2026-05-05 19:38 6.46487 103.12300 35826 ft 508 kts 326°
2026-05-05 19:39 6.52241 103.08238 35826 ft 508 kts 326°
2026-05-05 19:39 6.58029 103.04149 35827 ft 508 kts 325°
2026-05-05 19:40 6.63811 103.00072 35827 ft 508 kts 326°
2026-05-05 19:40 6.69597 102.95988 35827 ft 508 kts 325°
2026-05-05 19:41 6.75348 102.91925 35827 ft 509 kts 325°
2026-05-05 19:41 6.81139 102.87835 35828 ft 508 kts 325°
2026-05-05 19:42 6.87023 102.83907 35827 ft 507 kts 333°
2026-05-05 19:42 6.93525 102.81202 35828 ft 506 kts 341°
2026-05-05 19:43 7.00140 102.78872 35828 ft 507 kts 342°
2026-05-05 19:43 7.06812 102.76580 35827 ft 506 kts 342°
2026-05-05 19:44 7.13455 102.74282 35826 ft 504 kts 341°
2026-05-05 19:44 7.20072 102.71976 35827 ft 503 kts 341°
2026-05-05 19:45 7.26679 102.69668 35828 ft 503 kts 342°
2026-05-05 19:45 7.33252 102.67371 35828 ft 503 kts 341°
2026-05-05 19:46 7.39867 102.65060 35827 ft 503 kts 341°
2026-05-05 19:46 7.46484 102.62747 35825 ft 503 kts 342°
2026-05-05 19:47 7.53098 102.60435 35826 ft 503 kts 342°
2026-05-05 19:47 7.59670 102.58137 35825 ft 503 kts 341°
2026-05-05 19:48 7.66285 102.55823 35824 ft 503 kts 341°
2026-05-05 19:48 7.72900 102.53508 35825 ft 503 kts 341°
2026-05-05 19:49 7.79515 102.51193 35827 ft 503 kts 341°
2026-05-05 19:49 7.86081 102.48894 35827 ft 503 kts 342°
2026-05-05 19:50 7.92696 102.46577 35823 ft 503 kts 341°
2026-05-05 19:50 7.99311 102.44259 35821 ft 503 kts 341°
2026-05-05 19:51 8.05922 102.41942 35827 ft 503 kts 341°
2026-05-05 19:51 8.12492 102.39637 35827 ft 504 kts 341°
2026-05-05 19:52 8.19133 102.37308 35828 ft 506 kts 341°
2026-05-05 19:52 8.25785 102.34974 35826 ft 506 kts 341°
2026-05-05 19:53 8.32438 102.32639 35829 ft 507 kts 341°
2026-05-05 19:53 8.39097 102.30301 35830 ft 506 kts 341°
2026-05-05 19:54 8.45711 102.27978 35830 ft 507 kts 341°
2026-05-05 19:54 8.52369 102.25638 35826 ft 506 kts 341°
2026-05-05 19:55 8.59012 102.23302 35826 ft 504 kts 342°
2026-05-05 19:55 8.65631 102.20975 35830 ft 503 kts 341°
2026-05-05 19:56 8.72202 102.18663 35827 ft 503 kts 342°
2026-05-05 19:56 8.78814 102.16337 35828 ft 504 kts 342°
2026-05-05 19:57 8.85433 102.14006 35830 ft 504 kts 341°
2026-05-05 19:57 8.92051 102.11675 35827 ft 504 kts 341°
2026-05-05 19:58 8.98664 102.09346 35827 ft 503 kts 342°
2026-05-05 19:58 9.05227 102.07032 35828 ft 503 kts 342°
2026-05-05 19:59 9.11834 102.04703 35829 ft 503 kts 341°
2026-05-05 19:59 9.18438 102.02373 35828 ft 502 kts 342°
2026-05-05 20:00 9.25034 102.00046 35835 ft 502 kts 342°
2026-05-05 20:00 9.31795 101.98380 35838 ft 501 kts 354°
2026-05-05 20:01 9.38677 101.97658 35834 ft 501 kts 356°
2026-05-05 20:01 9.45627 101.97068 35836 ft 501 kts 356°
2026-05-05 20:02 9.52581 101.96488 35833 ft 501 kts 356°
2026-05-05 20:02 9.59532 101.95889 35833 ft 501 kts 356°
2026-05-05 20:03 9.66437 101.95288 35836 ft 501 kts 355°
2026-05-05 20:03 9.73385 101.94679 35835 ft 501 kts 355°
2026-05-05 20:04 9.80326 101.94071 35838 ft 501 kts 355°
2026-05-05 20:04 9.87281 101.93463 35839 ft 501 kts 355°
2026-05-05 20:05 9.94176 101.92859 35840 ft 501 kts 355°
2026-05-05 20:05 10.01123 101.92252 35837 ft 501 kts 355°
2026-05-05 20:06 10.08095 101.91641 35837 ft 504 kts 355°
2026-05-05 20:06 10.15079 101.91029 35836 ft 504 kts 355°
2026-05-05 20:07 10.22021 101.90421 35839 ft 504 kts 355°
2026-05-05 20:07 10.29007 101.89808 35840 ft 504 kts 355°
2026-05-05 20:08 10.35994 101.89195 35839 ft 504 kts 355°
2026-05-05 20:08 10.42990 101.88582 35841 ft 507 kts 355°
2026-05-05 20:09 10.50015 101.87964 35835 ft 507 kts 355°
2026-05-05 20:09 10.57000 101.87351 35840 ft 507 kts 355°
2026-05-05 20:10 10.64027 101.86733 35834 ft 507 kts 355°
2026-05-05 20:10 10.71056 101.86115 35837 ft 507 kts 355°
2026-05-05 20:11 10.77999 101.85246 35844 ft 506 kts 348°
2026-05-05 20:11 10.84887 101.83759 35837 ft 506 kts 347°
2026-05-05 20:12 10.91744 101.82182 35838 ft 506 kts 347°
2026-05-05 20:12 10.98609 101.80595 35838 ft 506 kts 347°
2026-05-05 20:13 11.05473 101.79020 35835 ft 506 kts 347°
2026-05-05 20:13 11.12294 101.77461 35834 ft 505 kts 347°
2026-05-05 20:14 11.19133 101.75898 35834 ft 503 kts 347°
2026-05-05 20:14 11.25960 101.74335 35832 ft 503 kts 347°
2026-05-05 20:15 11.32788 101.72772 35834 ft 503 kts 347°
2026-05-05 20:15 11.39565 101.71219 35834 ft 503 kts 347°
2026-05-05 20:16 11.46403 101.69652 35835 ft 503 kts 347°
2026-05-05 20:16 11.53225 101.68087 35835 ft 503 kts 347°